{"data":{"norad_id":39199,"intl_designator":"2013-034A","name":"IRNSS-1A","alt_names":[],"object_type":"PAYLOAD","status":"ACTIVE","operator":null,"country":"IND","launch_date":"2013-07-01","launch_site_code":"SRILR","launch_vehicle":null,"mission":null,"orbit_class":"UNKNOWN","rcs_meters":3.4785,"size_class":null,"mass_kg":null,"dimensions":null,"purposes":["comms","nav"],"wikipedia_slug":null,"has_3d_model":false,"image_url":null,"decayed_at":null,"tle_current":{"epoch":"2026-05-22T20:37:38.469792Z","epoch_age_seconds":255868,"freshness":"STALE","line1":"1 39199U 13034A   26142.85947303  .00000059  00000+0  00000+0 0  9998","line2":"2 39199  35.6649  64.2334 0016618 185.3754 355.4646  1.00280263 47111","mean_motion":1.00280263,"eccentricity":0.0016618,"inclination_deg":35.6649,"raan_deg":64.2334,"arg_perigee_deg":185.3754,"mean_anomaly_deg":355.4646,"bstar":0,"rev_number":4711,"period_min":1435.9754920068,"perigee_km":35714.15303521,"apogee_km":35854.283839742,"semimajor_km":42162.355437476,"source":"CELESTRAK","updated_at":"2026-05-25T13:38:23.494248Z"}}}